Time,TemperatureF,DewpointF,PressureIn,WindDirection,WindDirectionDegrees,WindSpeedMPH,WindSpeedGustMPH,Humidity,HourlyPrecipIn,Conditions,Clouds,dailyrainin,SoftwareType,DateUTC
2013-06-20 00:00:00,54.0,45.0,-100.00,SW,223,3.0,-999.0,72,0.00,,,-99.99,,2013-06-20 07:00:00,
2013-06-20 00:23:00,54.0,45.0,-100.00,SW,223,3.0,-999.0,72,0.00,,,-99.99,,2013-06-20 07:23:00,
2013-06-20 00:34:00,54.0,45.0,-100.00,SW,223,3.0,-999.0,72,0.00,,,-99.99,,2013-06-20 07:34:00,
2013-06-20 00:44:00,54.0,45.0,-100.00,SW,223,3.0,-999.0,72,0.00,,,-99.99,,2013-06-20 07:44:00,
2013-06-20 00:53:00,54.0,45.0,-100.00,SW,223,3.0,-999.0,72,0.00,,,-99.99,,2013-06-20 07:53:00,
2013-06-20 01:00:00,54.0,45.0,-100.00,SSW,212,3.0,-999.0,70,0.00,,,-99.99,,2013-06-20 08:00:00,
2013-06-20 01:22:00,54.0,45.0,-100.00,SSW,212,3.0,-999.0,70,0.00,,,-99.99,,2013-06-20 08:22:00,
2013-06-20 01:34:00,54.0,45.0,-100.00,SSW,212,3.0,-999.0,70,0.00,,,-99.99,,2013-06-20 08:34:00,
2013-06-20 01:43:00,54.0,45.0,-100.00,SSW,212,3.0,-999.0,70,0.00,,,-99.99,,2013-06-20 08:43:00,
2013-06-20 01:53:00,54.0,45.0,-100.00,SSW,212,3.0,-999.0,70,0.00,,,-99.99,,2013-06-20 08:53:00,
2013-06-20 02:00:00,54.0,45.0,-100.00,WNW,292,6.0,-999.0,70,0.00,,,-99.99,,2013-06-20 09:00:00,
2013-06-20 02:22:00,54.0,45.0,-100.00,WNW,292,6.0,-999.0,70,0.00,,,-99.99,,2013-06-20 09:22:00,
2013-06-20 02:33:00,54.0,45.0,-100.00,WNW,292,6.0,-999.0,70,0.00,,,-99.99,,2013-06-20 09:33:00,
2013-06-20 02:43:00,54.0,45.0,-100.00,WNW,292,6.0,-999.0,70,0.00,,,-99.99,,2013-06-20 09:43:00,
2013-06-20 02:52:00,54.0,45.0,-100.00,WNW,292,6.0,-999.0,70,0.00,,,-99.99,,2013-06-20 09:52:00,
2013-06-20 03:00:00,52.0,45.0,-100.00,SW,234,5.0,-999.0,76,0.00,,,-99.99,,2013-06-20 10:00:00,
2013-06-20 03:34:00,52.0,45.0,-100.00,SW,234,5.0,-999.0,76,0.00,,,-99.99,,2013-06-20 10:34:00,
2013-06-20 03:43:00,52.0,45.0,-100.00,SW,234,5.0,-999.0,76,0.00,,,-99.99,,2013-06-20 10:43:00,
2013-06-20 03:53:00,52.0,45.0,-100.00,SW,234,5.0,-999.0,76,0.00,,,-99.99,,2013-06-20 10:53:00,
2013-06-20 04:00:00,50.0,45.0,-100.00,WSW,237,2.0,-999.0,81,0.00,,,-99.99,,2013-06-20 11:00:00,
2013-06-20 04:22:00,50.0,45.0,-100.00,WSW,237,2.0,-999.0,81,0.00,,,-99.99,,2013-06-20 11:22:00,
2013-06-20 04:34:00,50.0,45.0,-100.00,WSW,237,2.0,-999.0,81,0.00,,,-99.99,,2013-06-20 11:34:00,
2013-06-20 04:43:00,50.0,45.0,-100.00,WSW,237,2.0,-999.0,81,0.00,,,-99.99,,2013-06-20 11:43:00,
2013-06-20 04:53:00,50.0,45.0,-100.00,WSW,237,2.0,-999.0,81,0.00,,,-99.99,,2013-06-20 11:53:00,
2013-06-20 05:00:00,50.0,44.0,-100.00,WSW,238,5.0,-999.0,80,0.00,,,-99.99,,2013-06-20 12:00:00,
2013-06-20 05:22:00,50.0,44.0,-100.00,WSW,238,5.0,-999.0,80,0.00,,,-99.99,,2013-06-20 12:22:00,
2013-06-20 05:34:00,50.0,44.0,-100.00,WSW,238,5.0,-999.0,80,0.00,,,-99.99,,2013-06-20 12:34:00,
2013-06-20 05:43:00,50.0,44.0,-100.00,WSW,238,5.0,-999.0,80,0.00,,,-99.99,,2013-06-20 12:43:00,
2013-06-20 05:53:00,50.0,44.0,-100.00,WSW,238,5.0,-999.0,80,0.00,,,-99.99,,2013-06-20 12:53:00,
2013-06-20 06:00:00,51.0,45.0,-100.00,SW,223,3.0,-999.0,78,0.00,,,-99.99,,2013-06-20 13:00:00,
2013-06-20 06:33:00,51.0,45.0,-100.00,SW,223,3.0,-999.0,78,0.00,,,-99.99,,2013-06-20 13:33:00,
2013-06-20 06:42:00,51.0,45.0,-100.00,SW,223,3.0,-999.0,78,0.00,,,-99.99,,2013-06-20 13:42:00,
2013-06-20 06:53:00,51.0,45.0,-100.00,SW,223,3.0,-999.0,78,0.00,,,-99.99,,2013-06-20 13:53:00,
2013-06-20 07:00:00,51.0,45.0,-100.00,WSW,242,5.0,-999.0,78,0.00,,,-99.99,,2013-06-20 14:00:00,
2013-06-20 07:22:00,51.0,45.0,-100.00,WSW,242,5.0,-999.0,78,0.00,,,-99.99,,2013-06-20 14:22:00,
2013-06-20 07:33:00,51.0,45.0,-100.00,WSW,242,5.0,-999.0,78,0.00,,,-99.99,,2013-06-20 14:33:00,
2013-06-20 07:42:00,51.0,45.0,-100.00,WSW,242,5.0,-999.0,78,0.00,,,-99.99,,2013-06-20 14:42:00,
2013-06-20 07:53:00,51.0,45.0,-100.00,WSW,242,5.0,-999.0,78,0.00,,,-99.99,,2013-06-20 14:53:00,
2013-06-20 08:00:00,53.0,45.0,-100.00,SW,230,5.0,-999.0,75,0.00,,,-99.99,,2013-06-20 15:00:00,
2013-06-20 08:33:00,53.0,45.0,-100.00,SW,230,5.0,-999.0,75,0.00,,,-99.99,,2013-06-20 15:33:00,
2013-06-20 08:43:00,53.0,45.0,-100.00,SW,230,5.0,-999.0,75,0.00,,,-99.99,,2013-06-20 15:43:00,
2013-06-20 08:53:00,53.0,45.0,-100.00,SW,230,5.0,-999.0,75,0.00,,,-99.99,,2013-06-20 15:53:00,
2013-06-20 09:00:00,58.0,46.0,-100.00,South,189,5.0,-999.0,63,0.00,,,-99.99,,2013-06-20 16:00:00,
2013-06-20 09:33:00,58.0,46.0,-100.00,South,189,5.0,-999.0,63,0.00,,,-99.99,,2013-06-20 16:33:00,
2013-06-20 09:43:00,58.0,46.0,-100.00,South,189,5.0,-999.0,63,0.00,,,-99.99,,2013-06-20 16:43:00,
2013-06-20 09:52:00,58.0,46.0,-100.00,South,189,5.0,-999.0,63,0.00,,,-99.99,,2013-06-20 16:52:00,
2013-06-20 10:00:00,63.0,43.0,-100.00,SSE,155,4.0,-999.0,49,0.00,,,-99.99,,2013-06-20 17:00:00,
2013-06-20 10:33:00,63.0,43.0,-100.00,SSE,155,4.0,-999.0,49,0.00,,,-99.99,,2013-06-20 17:33:00,
2013-06-20 10:43:00,63.0,43.0,-100.00,SSE,155,4.0,-999.0,49,0.00,,,-99.99,,2013-06-20 17:43:00,
2013-06-20 10:53:00,63.0,43.0,-100.00,SSE,155,4.0,-999.0,49,0.00,,,-99.99,,2013-06-20 17:53:00,
2013-06-20 11:00:00,69.0,41.0,-100.00,NNE,17,8.0,-999.0,37,0.00,,,-99.99,,2013-06-20 18:00:00,
2013-06-20 11:33:00,69.0,41.0,-100.00,NNE,17,8.0,-999.0,37,0.00,,,-99.99,,2013-06-20 18:33:00,
2013-06-20 11:43:00,69.0,41.0,-100.00,NNE,17,8.0,-999.0,37,0.00,,,-99.99,,2013-06-20 18:43:00,
2013-06-20 11:53:00,69.0,41.0,-100.00,NNE,17,8.0,-999.0,37,0.00,,,-99.99,,2013-06-20 18:53:00,
2013-06-20 12:00:00,70.0,45.0,-100.00,SSW,206,11.0,-999.0,41,0.00,,,-99.99,,2013-06-20 19:00:00,
2013-06-20 12:34:00,70.0,45.0,-100.00,SSW,206,11.0,-999.0,41,0.00,,,-99.99,,2013-06-20 19:34:00,
2013-06-20 12:43:00,70.0,45.0,-100.00,SSW,206,11.0,-999.0,41,0.00,,,-99.99,,2013-06-20 19:43:00,
2013-06-20 12:52:00,70.0,45.0,-100.00,SSW,206,11.0,-999.0,41,0.00,,,-99.99,,2013-06-20 19:52:00,
2013-06-20 13:00:00,71.0,46.0,-100.00,SW,228,17.0,-999.0,41,0.00,,,-99.99,,2013-06-20 20:00:00,
2013-06-20 13:33:00,71.0,46.0,-100.00,SW,228,17.0,-999.0,41,0.00,,,-99.99,,2013-06-20 20:33:00,
2013-06-20 13:52:00,71.0,46.0,-100.00,SW,228,17.0,-999.0,41,0.00,,,-99.99,,2013-06-20 20:52:00,